EW7643 Weather Reports


Display with metric or nautical units.
time (UTC)temp
F
wind
direction
speed
MPH
gust
MPH
rain 1hr
in
rain 24hr
in
rain mn
in
humidity
%
barometer
mb
20260503231519 76 113 0.0 0.0 0.00 0.02 0.02 44 1018.7
20260503230025 77 110 0.0 0.0 0.00 0.02 0.02 43 1018.8
20260503224508 77 120 0.0 4.0 0.00 0.02 0.02 42 1018.8
20260503223013 78 67 0.0 0.0 0.00 0.02 0.02 41 1019.2
20260503221517 78 100 0.0 7.0 0.00 0.02 0.02 41 1019.0
20260503220020 79 129 0.0 4.0 0.00 0.02 0.02 39 1019.1
20260503214525 79 92 0.0 0.0 0.00 0.02 0.02 39 1019.4
20260503213008 79 98 0.0 3.0 0.00 0.02 0.02 39 1019.5
20260503211515 80 75 0.0 3.0 0.00 0.02 0.02 35 1019.7
20260503210016 79 18 0.0 5.0 0.00 0.02 0.02 36 1019.9
20260503204527 80 39 0.0 0.0 0.00 0.02 0.02 36 1020.0
20260503203028 79 101 0.0 0.0 0.00 0.02 0.02 36 1020.3
20260503201511 80 42 0.0 4.0 0.00 0.02 0.02 34 1020.6
20260503200014 80 68 0.0 3.0 0.00 0.02 0.02 37 1020.8
20260503194523 80 41 0.0 4.0 0.00 0.02 0.02 36 1020.8
20260503193037 80 82 0.0 5.0 0.00 0.02 0.02 34 1021.2
20260503191526 79 30 0.0 3.0 0.00 0.02 0.02 32 1021.5
20260503190010 79 4 1.0 5.0 0.00 0.02 0.02 30 1021.8
20260503184524 79 6 0.0 5.0 0.00 0.02 0.02 33 1021.9
20260503183021 80 60 1.0 6.0 0.00 0.02 0.02 30 1022.2
20260503181508 79 37 0.0 4.0 0.00 0.02 0.02 33 1022.4
20260503180016 79 256 0.0 3.0 0.00 0.02 0.02 30 1022.5
20260503174515 79 251 0.0 2.0 0.00 0.02 0.02 31 1022.7
20260503173023 79 73 0.0 2.0 0.00 0.02 0.02 32 1023.1
20260503171524 79 5 0.0 3.0 0.00 0.02 0.02 33 1023.2
20260503081503 52 232 0.0 0.0 0.00 0.01 0.00 73 1021.1
20260503071508 53 232 0.0 0.0 0.00 0.01 0.00 75 1020.9
20260503054507 54 232 0.0 0.0 0.00 0.01 0.00 79 1021.0
20260503053010 55 232 0.0 0.0 0.00 0.01 0.00 78 1021.0
20260503051512 55 232 0.0 0.0 0.00 0.01 0.00 79 1020.9
20260503050014 55 232 0.0 0.0 0.00 0.01 0.00 81 1020.9
20260503044509 55 232 0.0 0.0 0.00 0.01 0.01 81 1020.7
20260503043008 56 232 0.0 0.0 0.00 0.01 0.01 81 1020.7
20260503041512 57 232 0.0 0.0 0.00 0.02 0.01 81 1020.8
20260503040019 57 232 0.0 0.0 0.00 0.02 0.01 81 1020.7
20260503034515 57 232 0.0 0.0 0.00 0.03 0.01 81 1020.4
20260503033015 58 232 0.0 0.0 0.00 0.03 0.01 80 1020.1
20260503031510 58 232 0.0 0.0 0.00 0.03 0.01 80 1020.1
20260503030012 58 232 0.0 0.0 0.00 0.03 0.01 77 1020.1
20260503024512 59 232 0.0 0.0 0.00 0.04 0.01 76 1020.1
20260503023012 60 232 0.0 0.0 0.00 0.06 0.01 72 1019.9
20260503021510 62 232 0.0 0.0 0.00 0.06 0.01 69 1019.7
20260503020011 63 232 0.0 0.0 0.00 0.07 0.01 66 1019.7
20260503014512 65 232 0.0 0.0 0.00 0.08 0.01 61 1019.4
20260503013012 66 232 0.0 0.0 0.00 0.09 0.01 58 1019.3
20260503011512 67 232 0.0 0.0 0.00 0.12 0.01 57 1019.2
20260503010012 69 232 0.0 0.0 0.00 0.13 0.01 53 1018.9
20260503004534 70 243 0.0 0.0 0.00 0.15 0.01 51 1018.7
20260503003016 71 240 0.0 0.0 0.00 0.21 0.01 48 1018.6
20260503001516 72 258 0.0 0.0 0.00 0.29 0.01 46 1018.5
20260503000018 73 5 0.0 0.0 0.00 0.35 0.01 44 1018.4
20260502234516 74 277 0.0 0.0 0.00 0.35 0.01 43 1018.2
20260502233017 75 225 0.0 0.0 0.00 0.35 0.01 40 1018.1